Fort Worth, TX

5:36 AM CDT on May 30, 2017 (GMT -0500)
Fort Worth Meacham International

Weather History for KFTW - September, 2012

Change the Weather History Date:

Sunday, September 30, 2012

  Actual Average Record
Temperature  
Mean Temperature 66 °F -  
Max Temperature 73 °F 82 °F 99 °F (1998)
Min Temperature 60 °F 59 °F 48 °F (1999)
Cooling Degree Days 1    
Growing Degree Days 16 (Base 50)    
Moisture  
Dew Point 62 °F    
Average Humidity 87    
Maximum Humidity 100    
Minimum Humidity 57    
Precipitation  
Precipitation 1.09 in - - ()
Sea Level Pressure  
Sea Level Pressure 29.86 in    
Wind  
Wind Speed 12 mph (North)    
Max Wind Speed 17 mph    
Max Gust Speed 25 mph    
Visibility 9 miles    
Events Rain    
Averages and records for this station are not official NWS values.
T = Trace of Precipitation, MM = Missing Value Source: NWS Daily Summary

Daily Weather History Graph

Daily Weather History Graph

Search for Another Location

Airport or City:

Trip Planner

Search our weather history database for the weather conditions in past years. The results will help you decide how hot, cold, wet, or windy it might be!

Date:

Astronomy

Sep. 30, 2012 Rise Set
Actual Time 7:23 AM CDT 7:14 PM CDT
Civil Twilight 6:58 AM CDT 7:39 PM CDT
Nautical Twilight 6:30 AM CDT 8:07 PM CDT
Astronomical Twilight 6:01 AM CDT 8:36 PM CDT
Moon 7:25 PM CDT 7:50 AM CDT
Length of Visible Light 12h 40m
Length of Day
11h 51m
Full, 100% of the Moon is Illuminated
Sep 30
Full
Oct 8
Last Quarter
Oct 15
New
Oct 21
First Quarter
Oct 29
Full

Hourly Weather History & Observations

Time (CDT) Temp. Dew Point Humidity Pressure Visibility Wind Dir Wind Speed Gust Speed Precip Events Conditions
12:28 AM 64.4 °F 64.4 °F 100% 29.88 in 10.0 mi NNE 12.7 mph - 0.02 in   Overcast
12:53 AM 64.9 °F 64.9 °F 100% 29.87 in 10.0 mi North 11.5 mph - 0.03 in   Overcast
1:16 AM 64.4 °F 64.4 °F 100% 29.88 in 10.0 mi North 13.8 mph - 0.01 in   Overcast
1:45 AM 64.4 °F 64.4 °F 100% 29.88 in 9.0 mi North 11.5 mph - 0.03 in   Overcast
1:51 AM 64.4 °F 64.4 °F 100% 29.88 in 9.0 mi North 10.4 mph - 0.04 in   Overcast
1:53 AM 64.9 °F 64.9 °F 100% 29.87 in 9.0 mi North 12.7 mph - 0.04 in   Overcast
2:08 AM 64.4 °F 64.4 °F 100% 29.88 in 9.0 mi North 12.7 mph - 0.01 in   Overcast
2:22 AM 64.4 °F 64.4 °F 100% 29.88 in 8.0 mi North 12.7 mph 20.7 mph 0.01 in Rain Light Rain
2:41 AM 64.4 °F 64.4 °F 100% 29.87 in 7.0 mi North 15.0 mph 19.6 mph 0.02 in Rain Light Rain
2:53 AM 64.9 °F 64.9 °F 100% 29.85 in 5.0 mi North 12.7 mph - 0.03 in Rain Light Rain
3:43 AM 64.4 °F 64.4 °F 100% 29.85 in 6.0 mi North 15.0 mph 24.2 mph 0.03 in Rain Light Rain
3:53 AM 64.9 °F 64.9 °F 100% 29.83 in 8.0 mi North 12.7 mph - 0.03 in Rain Light Rain
4:09 AM 64.4 °F 64.4 °F 100% 29.85 in 9.0 mi North 16.1 mph 21.9 mph 0.01 in Rain Light Rain
4:53 AM 64.9 °F 64.9 °F 100% 29.84 in 10.0 mi North 13.8 mph - 0.03 in   Overcast
5:53 AM 64.9 °F 64.9 °F 100% 29.83 in 9.0 mi North 11.5 mph - 0.04 in   Overcast
6:53 AM 64.9 °F 64.9 °F 100% 29.84 in 10.0 mi NNW 11.5 mph - 0.02 in   Overcast
7:53 AM 64.9 °F 64.9 °F 100% 29.85 in 10.0 mi North 11.5 mph - 0.03 in   Overcast
8:53 AM 64.4 °F 64.4 °F 100% 29.88 in 5.0 mi North 11.5 mph - N/A Rain Light Rain
9:53 AM 66.0 °F 66.0 °F 100% 29.88 in 10.0 mi North 11.5 mph - 0.02 in   Overcast
10:17 AM 66.2 °F 66.2 °F 100% 29.90 in 10.0 mi North 15.0 mph - 0.01 in   Overcast
10:53 AM 66.0 °F 66.0 °F 100% 29.89 in 8.0 mi North 11.5 mph - 0.03 in Rain Light Rain
11:53 AM 66.9 °F 66.0 °F 97% 29.88 in 10.0 mi NNE 15.0 mph 23.0 mph 0.03 in   Overcast
12:53 PM 72.0 °F 64.9 °F 78% 29.87 in 10.0 mi NNE 15.0 mph 23.0 mph 0.02 in   Mostly Cloudy
1:53 PM 72.0 °F 62.1 °F 71% 29.85 in 10.0 mi North 16.1 mph 25.3 mph 0.03 in   Overcast
2:14 PM 71.6 °F 62.6 °F 73% 29.87 in 10.0 mi NNE 13.8 mph 21.9 mph 0.01 in   Overcast
2:53 PM 71.1 °F 61.0 °F 70% 29.85 in 10.0 mi NNE 17.3 mph 24.2 mph 0.03 in   Overcast
3:04 PM 71.6 °F 60.8 °F 69% 29.86 in 10.0 mi North 13.8 mph 19.6 mph N/A   Overcast
3:32 PM 71.6 °F 60.8 °F 69% 29.86 in 10.0 mi North 13.8 mph - 0.68 in   Mostly Cloudy
3:53 PM 71.1 °F 61.0 °F 70% 29.84 in 10.0 mi North 15.0 mph - 0.68 in   Mostly Cloudy
4:00 PM 71.6 °F 60.8 °F 69% 29.86 in 10.0 mi NNE 12.7 mph - N/A   Overcast
4:53 PM 71.1 °F 55.0 °F 57% 29.84 in 10.0 mi NNE 16.1 mph - N/A   Overcast
5:53 PM 69.1 °F 53.1 °F 57% 29.84 in 10.0 mi NNE 10.4 mph - N/A   Clear
6:53 PM 69.1 °F 55.0 °F 61% 29.84 in 10.0 mi NNE 6.9 mph - N/A   Clear
7:53 PM 64.9 °F 52.0 °F 63% 29.86 in 10.0 mi NNE 5.8 mph - N/A   Clear
8:53 PM 63.0 °F 52.0 °F 67% 29.87 in 10.0 mi NNW 3.5 mph - N/A   Clear
9:53 PM 62.1 °F 53.1 °F 72% 29.87 in 10.0 mi Calm Calm - N/A   Clear
10:53 PM 60.1 °F 53.1 °F 78% 29.88 in 10.0 mi West 3.5 mph - N/A   Clear
11:53 PM 60.1 °F 53.1 °F 78% 29.86 in 10.0 mi West 3.5 mph - N/A   Clear